User: anonymous   Login
Location: Hepcat Sky Observatory
(29.9800°N, 95.6500°W)
Time: 22:23:00
(UTC-05:00)
Language:

ALOS - Orbit

View from above orbital plane
View from above orbital plane
View from above satellite
View from above satellite

Ground track
Ground track

The orbit data is extracted from the following two-line orbital elements,

1 28931U 06002A   15107.56600925  .00001140  00000-0  23735-3 0  9997
2 28931 097.9404 159.3749 0000721 054.0029 306.1245 14.61789709491788
Epoch (UTC): 17 April 2015 13:35:03
Eccentricity: 0.0000721
inclination: 97.9404°
perigee height: 687 km
apogee height: 688 km
right ascension of ascending node: 159.3749°
argument of perigee: 54.0029°
revolutions per day: 14.61789709
mean anomaly at epoch: 306.1245°
orbit number at epoch: 49178

The dashed part of the orbit path shows where the satellite is in the earth's shadow,  

DLR